HAZ9595 ZKPY-ZSHC

Flight info

Callsign HAZ9595
Flight time 2h 17m
Altitude 35000
Route SAS21D SASRI W1 PONIL B332 SANKO A326 SURAK G455 MATNU W115 PINOT B221 OKTUG OKTUG91
Aircraft A320/M-SDE3FGHIRWY/LB1

Departure

Time 2026-04-28 13:34
Airport Pyongyang Sunan International Airport (ZKPY)

Arrival

Time 2026-04-28 15:52
Airport Hangzhou Xiaoshan International Airport (ZSHC)
Time Latitude Longitude Altitude Speed Heading
2026-04-28 13:13 39.20089 125.67553 98 ft 0 kts 73°
2026-04-28 13:26 39.20089 125.67552 98 ft 1 kts 73°
2026-04-28 13:27 39.20084 125.67527 98 ft 3 kts 82°
2026-04-28 13:27 39.20083 125.67500 102 ft 3 kts 98°
2026-04-28 13:27 39.20088 125.67475 99 ft 1 kts 112°
2026-04-28 13:30 39.20073 125.67482 100 ft 7 kts 166°
2026-04-28 13:30 39.19952 125.67521 101 ft 17 kts 162°
2026-04-28 13:30 39.19840 125.67565 99 ft 16 kts 162°
2026-04-28 13:31 39.19619 125.67653 102 ft 17 kts 164°
2026-04-28 13:31 39.19504 125.67697 100 ft 18 kts 161°
2026-04-28 13:31 39.19385 125.67744 99 ft 18 kts 163°
2026-04-28 13:32 39.19260 125.67795 99 ft 19 kts 162°
2026-04-28 13:32 39.19149 125.67828 99 ft 14 kts 182°
2026-04-28 13:32 39.19092 125.67748 99 ft 14 kts 263°
2026-04-28 13:32 39.19120 125.67620 99 ft 15 kts 300°
2026-04-28 13:33 39.19194 125.67558 102 ft 3 kts 342°
2026-04-28 13:33 39.19302 125.67516 100 ft 49 kts 343°
2026-04-28 13:33 39.19861 125.67296 100 ft 116 kts 343°
2026-04-28 13:34 39.20805 125.66925 103 ft 166 kts 343°
2026-04-28 13:34 39.21918 125.66484 672 ft 166 kts 342°
2026-04-28 13:34 39.22647 125.66189 1149 ft 166 kts 341°
2026-04-28 13:34 39.23648 125.65503 1857 ft 164 kts 312°
2026-04-28 13:35 39.24172 125.63704 2655 ft 167 kts 268°
2026-04-28 13:35 39.23997 125.62726 3022 ft 171 kts 254°
2026-04-28 13:35 39.23596 125.61250 3441 ft 183 kts 255°
2026-04-28 13:35 39.23157 125.59609 3650 ft 205 kts 255°
2026-04-28 13:36 39.22669 125.57777 3845 ft 228 kts 255°
2026-04-28 13:36 39.22127 125.55740 4156 ft 252 kts 255°
2026-04-28 13:36 39.21535 125.53529 4738 ft 266 kts 255°
2026-04-28 13:36 39.20667 125.51387 5490 ft 279 kts 231°
2026-04-28 13:37 39.19074 125.49908 6259 ft 288 kts 208°
2026-04-28 13:37 39.17267 125.48748 7060 ft 291 kts 208°
2026-04-28 13:37 39.15442 125.47600 7882 ft 292 kts 207°
2026-04-28 13:37 39.13611 125.46449 8733 ft 293 kts 207°
2026-04-28 13:38 39.11774 125.45294 9576 ft 294 kts 207°
2026-04-28 13:38 39.09931 125.44130 10294 ft 301 kts 207°
2026-04-28 13:38 39.07987 125.42893 10491 ft 323 kts 208°
2026-04-28 13:38 39.06030 125.41282 10635 ft 345 kts 219°
2026-04-28 13:39 39.04249 125.39087 10769 ft 364 kts 231°
2026-04-28 13:39 39.02818 125.36406 11163 ft 373 kts 243°
2026-04-28 13:39 39.01791 125.33287 11764 ft 375 kts 255°
2026-04-28 13:39 39.01228 125.30055 12398 ft 377 kts 261°
2026-04-28 13:40 39.00734 125.26735 13034 ft 380 kts 261°
2026-04-28 13:40 39.00235 125.23385 13643 ft 384 kts 261°
2026-04-28 13:40 38.99730 125.19997 14176 ft 388 kts 261°
2026-04-28 13:40 38.99215 125.16579 14715 ft 391 kts 261°
2026-04-28 13:41 38.98695 125.13142 15244 ft 393 kts 261°
2026-04-28 13:41 38.98171 125.09680 15775 ft 395 kts 261°
2026-04-28 13:41 38.97645 125.06205 16299 ft 398 kts 261°
2026-04-28 13:41 38.97113 125.02704 16821 ft 400 kts 261°
2026-04-28 13:42 38.96578 124.99186 17329 ft 402 kts 261°
2026-04-28 13:42 38.96038 124.95645 17789 ft 406 kts 261°
2026-04-28 13:42 38.95494 124.92077 18299 ft 408 kts 261°
2026-04-28 13:42 38.94944 124.88492 18755 ft 409 kts 261°
2026-04-28 13:43 38.94396 124.84911 19311 ft 407 kts 261°
2026-04-28 13:43 38.93852 124.81360 19916 ft 403 kts 261°
2026-04-28 13:43 38.93314 124.77846 20562 ft 399 kts 261°
2026-04-28 13:43 38.92782 124.74371 21179 ft 394 kts 260°
2026-04-28 13:44 38.92252 124.70930 21724 ft 393 kts 261°
2026-04-28 13:44 38.91719 124.67495 22215 ft 392 kts 260°
2026-04-28 13:44 38.91186 124.64072 22710 ft 390 kts 260°
2026-04-28 13:44 38.90655 124.60667 23234 ft 388 kts 260°
2026-04-28 13:45 38.90127 124.57279 23739 ft 386 kts 260°
2026-04-28 13:45 38.89607 124.53931 24261 ft 379 kts 260°
2026-04-28 13:45 38.89093 124.50636 24732 ft 375 kts 260°
2026-04-28 13:45 38.88581 124.47361 25133 ft 373 kts 260°
2026-04-28 13:46 38.88069 124.44091 25391 ft 375 kts 260°
2026-04-28 13:46 38.87551 124.40809 25677 ft 375 kts 260°
2026-04-28 13:46 38.87032 124.37528 25977 ft 375 kts 260°
2026-04-28 13:46 38.86513 124.34251 26296 ft 375 kts 260°
2026-04-28 13:47 38.85993 124.30980 26614 ft 374 kts 260°
2026-04-28 13:47 38.85470 124.27721 27002 ft 371 kts 258°
2026-04-28 13:47 38.84667 124.24585 27480 ft 370 kts 250°
2026-04-28 13:47 38.83401 124.21707 27964 ft 372 kts 242°
2026-04-28 13:48 38.81937 124.19000 28440 ft 367 kts 242°
2026-04-28 13:48 38.80493 124.16331 28956 ft 362 kts 242°
2026-04-28 13:48 38.79069 124.13698 29454 ft 357 kts 243°
2026-04-28 13:48 38.77665 124.11092 29949 ft 353 kts 243°
2026-04-28 13:49 38.76276 124.08522 30400 ft 349 kts 243°
2026-04-28 13:49 38.74896 124.05975 30766 ft 346 kts 243°
2026-04-28 13:49 38.73525 124.03447 31094 ft 345 kts 243°
2026-04-28 13:49 38.72172 124.00923 31387 ft 342 kts 245°
2026-04-28 13:50 38.71130 123.98235 31638 ft 334 kts 253°
2026-04-28 13:50 38.70318 123.95447 31858 ft 335 kts 253°
2026-04-28 13:50 38.69503 123.92660 32168 ft 334 kts 253°
2026-04-28 13:50 38.68688 123.89889 32489 ft 332 kts 253°
2026-04-28 13:51 38.67886 123.87166 32800 ft 331 kts 253°
2026-04-28 13:51 38.67076 123.84417 33101 ft 329 kts 253°
2026-04-28 13:51 38.66270 123.81681 33393 ft 328 kts 253°
2026-04-28 13:51 38.65465 123.78950 33687 ft 327 kts 253°
2026-04-28 13:52 38.64660 123.76233 33976 ft 326 kts 253°
2026-04-28 13:52 38.63856 123.73524 34253 ft 325 kts 253°
2026-04-28 13:52 38.63042 123.70785 34503 ft 325 kts 254°
2026-04-28 13:52 38.62253 123.68126 34765 ft 324 kts 254°
2026-04-28 13:53 38.61457 123.65435 34921 ft 324 kts 254°
2026-04-28 13:53 38.60660 123.62741 35113 ft 324 kts 254°
2026-04-28 13:53 38.59861 123.60046 35236 ft 325 kts 254°
2026-04-28 13:53 38.59056 123.57335 35264 ft 327 kts 254°
2026-04-28 13:54 38.57435 123.51895 35267 ft 328 kts 254°
2026-04-28 13:54 38.55804 123.46454 35273 ft 328 kts 254°
2026-04-28 13:55 38.54177 123.41012 35278 ft 328 kts 254°
2026-04-28 13:55 38.52545 123.35576 35241 ft 328 kts 254°
2026-04-28 13:56 38.50907 123.30123 35244 ft 330 kts 254°
2026-04-28 13:56 38.49254 123.24630 35252 ft 333 kts 253°
2026-04-28 13:57 38.47587 123.19104 35264 ft 334 kts 253°
2026-04-28 13:57 38.45912 123.13559 35278 ft 335 kts 253°
2026-04-28 13:58 38.44231 123.08007 35276 ft 336 kts 253°
2026-04-28 13:58 38.42543 123.02450 35265 ft 338 kts 253°
2026-04-28 13:59 38.40840 122.96852 35274 ft 339 kts 253°
2026-04-28 13:59 38.39126 122.91245 35283 ft 339 kts 253°
2026-04-28 14:00 38.37415 122.85645 35300 ft 339 kts 253°
2026-04-28 14:00 38.35708 122.80047 35305 ft 339 kts 253°
2026-04-28 14:01 38.33993 122.74463 35307 ft 339 kts 252°
2026-04-28 14:01 38.32768 122.71854 35310 ft 352 kts 237°
2026-04-28 14:01 38.30800 122.69849 35307 ft 379 kts 220°
2026-04-28 14:02 38.28180 122.68792 35300 ft 409 kts 206°
2026-04-28 14:02 38.25368 122.68142 35292 ft 412 kts 205°
2026-04-28 14:02 38.19681 122.66983 35287 ft 415 kts 205°
2026-04-28 14:03 38.13863 122.66185 35260 ft 441 kts 192°
2026-04-28 14:03 38.10738 122.66843 35267 ft 472 kts 178°
2026-04-28 14:03 38.07629 122.68549 35271 ft 505 kts 162°
2026-04-28 14:04 38.04819 122.71324 35273 ft 534 kts 147°
2026-04-28 14:04 38.02207 122.74709 35275 ft 538 kts 146°
2026-04-28 14:04 37.96984 122.81533 35278 ft 540 kts 146°
2026-04-28 14:05 37.91737 122.88353 35286 ft 541 kts 146°
2026-04-28 14:05 37.86467 122.95156 35230 ft 541 kts 146°
2026-04-28 14:06 37.81186 123.01941 35300 ft 542 kts 146°
2026-04-28 14:06 37.75903 123.08731 35303 ft 542 kts 146°
2026-04-28 14:07 37.70624 123.15514 35307 ft 541 kts 146°
2026-04-28 14:07 37.65338 123.22271 35299 ft 540 kts 146°
2026-04-28 14:08 37.59740 123.28291 35297 ft 514 kts 161°
2026-04-28 14:08 37.56672 123.30445 35296 ft 496 kts 170°
2026-04-28 14:08 37.53520 123.32019 35258 ft 480 kts 178°
2026-04-28 14:09 37.50344 123.33051 35263 ft 464 kts 185°
2026-04-28 14:09 37.47193 123.33580 35266 ft 450 kts 192°
2026-04-28 14:09 37.41009 123.33781 35272 ft 444 kts 194°
2026-04-28 14:10 37.34818 123.33949 35282 ft 446 kts 194°
2026-04-28 14:10 37.28612 123.34129 35260 ft 446 kts 194°
2026-04-28 14:11 37.22399 123.34307 35275 ft 447 kts 194°
2026-04-28 14:11 37.16181 123.34488 35290 ft 447 kts 194°
2026-04-28 14:12 37.09973 123.34663 35274 ft 446 kts 193°
2026-04-28 14:12 37.03765 123.34841 35296 ft 446 kts 193°
2026-04-28 14:13 36.97572 123.35011 35300 ft 445 kts 193°
2026-04-28 14:13 36.91382 123.35181 35271 ft 445 kts 193°
2026-04-28 14:14 36.85190 123.35352 35283 ft 445 kts 193°
2026-04-28 14:14 36.78993 123.35529 35293 ft 446 kts 193°
2026-04-28 14:15 36.72833 123.35698 35247 ft 446 kts 193°
2026-04-28 14:15 36.66632 123.35872 35297 ft 446 kts 193°
2026-04-28 14:16 36.60420 123.36050 35313 ft 446 kts 193°
2026-04-28 14:16 36.54213 123.36222 35318 ft 446 kts 193°
2026-04-28 14:17 36.48012 123.36391 35300 ft 446 kts 193°
2026-04-28 14:17 36.41812 123.36564 35311 ft 446 kts 193°
2026-04-28 14:18 36.35614 123.36738 35320 ft 446 kts 193°
2026-04-28 14:18 36.29413 123.36905 35281 ft 446 kts 192°
2026-04-28 14:19 36.23212 123.37083 35304 ft 446 kts 192°
2026-04-28 14:19 36.17010 123.37266 35306 ft 446 kts 192°
2026-04-28 14:20 36.11860 123.37417 35313 ft 445 kts 192°
2026-04-28 14:20 36.04621 123.37618 35307 ft 445 kts 193°
2026-04-28 14:21 35.99476 123.37759 35310 ft 445 kts 192°
2026-04-28 14:21 35.93284 123.37936 35316 ft 445 kts 192°
2026-04-28 14:22 35.87092 123.38102 35293 ft 445 kts 192°
2026-04-28 14:22 35.80890 123.38274 35305 ft 446 kts 192°
2026-04-28 14:23 35.74692 123.38453 35310 ft 445 kts 192°
2026-04-28 14:23 35.68496 123.38623 35318 ft 445 kts 192°
2026-04-28 14:24 35.62302 123.38798 35290 ft 445 kts 192°
2026-04-28 14:24 35.56103 123.38973 35298 ft 446 kts 192°
2026-04-28 14:25 35.49901 123.39144 35306 ft 446 kts 192°
2026-04-28 14:25 35.43694 123.39314 35275 ft 446 kts 192°
2026-04-28 14:26 35.37486 123.39490 35287 ft 446 kts 192°
2026-04-28 14:26 35.31314 123.39664 35297 ft 447 kts 192°
2026-04-28 14:27 35.25104 123.39832 35272 ft 446 kts 192°
2026-04-28 14:27 35.18891 123.40000 35282 ft 447 kts 192°
2026-04-28 14:28 35.12675 123.40172 35292 ft 447 kts 192°
2026-04-28 14:28 35.06454 123.40349 35299 ft 447 kts 192°
2026-04-28 14:29 35.00232 123.40522 35274 ft 447 kts 191°
2026-04-28 14:29 34.93972 123.40893 35288 ft 453 kts 188°
2026-04-28 14:30 34.87672 123.41498 35296 ft 454 kts 188°
2026-04-28 14:30 34.81372 123.42112 35277 ft 454 kts 188°
2026-04-28 14:31 34.75072 123.42672 35290 ft 454 kts 188°
2026-04-28 14:31 34.68773 123.43207 35300 ft 454 kts 188°
2026-04-28 14:32 34.62476 123.43743 35309 ft 454 kts 188°
2026-04-28 14:32 34.56175 123.44286 35284 ft 454 kts 188°
2026-04-28 14:33 34.49870 123.44836 35300 ft 454 kts 188°
2026-04-28 14:33 34.43571 123.45378 35310 ft 454 kts 188°
2026-04-28 14:34 34.34116 123.46185 35295 ft 454 kts 188°
2026-04-28 14:35 34.27821 123.46733 35310 ft 454 kts 188°
2026-04-28 14:35 34.21526 123.47285 35316 ft 453 kts 188°
2026-04-28 14:36 34.15238 123.47821 35277 ft 453 kts 188°
2026-04-28 14:36 34.08958 123.48335 35302 ft 451 kts 188°
2026-04-28 14:37 34.02726 123.48533 35314 ft 445 kts 191°
2026-04-28 14:37 33.96587 123.48454 35318 ft 444 kts 192°
2026-04-28 14:38 33.90405 123.48390 35322 ft 444 kts 191°
2026-04-28 14:38 33.84219 123.48397 35322 ft 445 kts 191°
2026-04-28 14:39 33.78025 123.48432 35319 ft 445 kts 191°
2026-04-28 14:39 33.71834 123.48467 35318 ft 445 kts 191°
2026-04-28 14:40 33.65642 123.48491 35299 ft 445 kts 191°
2026-04-28 14:40 33.59449 123.48511 35305 ft 445 kts 191°
2026-04-28 14:41 33.53249 123.48538 35310 ft 446 kts 191°
2026-04-28 14:41 33.47049 123.48564 35286 ft 446 kts 190°
2026-04-28 14:42 33.40844 123.48590 35294 ft 446 kts 190°
2026-04-28 14:42 33.34637 123.48609 35305 ft 446 kts 190°
2026-04-28 14:43 33.28427 123.48635 35306 ft 446 kts 190°
2026-04-28 14:43 33.22214 123.48654 35296 ft 446 kts 190°
2026-04-28 14:44 33.16005 123.48672 35300 ft 446 kts 190°
2026-04-28 14:44 33.09791 123.48699 35304 ft 446 kts 190°
2026-04-28 14:45 33.03584 123.48718 35274 ft 446 kts 189°
2026-04-28 14:45 32.97367 123.48733 35278 ft 447 kts 190°
2026-04-28 14:46 32.91135 123.48761 35283 ft 448 kts 189°
2026-04-28 14:46 32.84895 123.48789 35289 ft 448 kts 189°
2026-04-28 14:47 32.78650 123.48808 35274 ft 449 kts 189°
2026-04-28 14:47 32.72395 123.48826 35278 ft 450 kts 189°
2026-04-28 14:48 32.66129 123.48858 35282 ft 451 kts 189°
2026-04-28 14:48 32.59860 123.48882 35288 ft 451 kts 189°
2026-04-28 14:49 32.53589 123.48897 35263 ft 451 kts 189°
2026-04-28 14:49 32.47311 123.48911 35276 ft 451 kts 189°
2026-04-28 14:50 32.41071 123.48943 35281 ft 451 kts 189°
2026-04-28 14:50 32.34792 123.48966 35270 ft 451 kts 189°
2026-04-28 14:51 32.28506 123.48980 35278 ft 452 kts 189°
2026-04-28 14:51 32.22218 123.48998 35276 ft 452 kts 189°
2026-04-28 14:52 32.15921 123.49023 35281 ft 453 kts 189°
2026-04-28 14:52 32.09621 123.49047 35256 ft 453 kts 189°
2026-04-28 14:53 32.03315 123.49072 35262 ft 453 kts 189°
2026-04-28 14:53 31.97009 123.49098 35264 ft 454 kts 189°
2026-04-28 14:54 31.90700 123.49117 35246 ft 454 kts 189°
2026-04-28 14:54 31.84499 123.48612 35253 ft 434 kts 205°
2026-04-28 14:54 31.81773 123.47294 35256 ft 418 kts 218°
2026-04-28 14:55 31.79468 123.45310 35257 ft 405 kts 230°
2026-04-28 14:55 31.77666 123.42824 35257 ft 397 kts 241°
2026-04-28 14:55 31.76410 123.39974 35256 ft 391 kts 252°
2026-04-28 14:56 31.75336 123.33754 35256 ft 389 kts 262°
2026-04-28 14:56 31.74517 123.27459 35257 ft 390 kts 262°
2026-04-28 14:57 31.73686 123.21159 35260 ft 390 kts 261°
2026-04-28 14:57 31.72849 123.14855 35272 ft 391 kts 262°
2026-04-28 14:58 31.72017 123.08553 35274 ft 390 kts 262°
2026-04-28 14:58 31.71181 123.02254 35277 ft 390 kts 262°
2026-04-28 14:59 31.70352 122.95993 35280 ft 390 kts 262°
2026-04-28 14:59 31.69510 122.89697 35281 ft 391 kts 261°
2026-04-28 15:00 31.68662 122.83399 35294 ft 390 kts 261°
2026-04-28 15:00 31.67808 122.77107 35298 ft 390 kts 261°
2026-04-28 15:01 31.66977 122.70816 35271 ft 391 kts 261°
2026-04-28 15:01 31.65471 122.64702 35274 ft 395 kts 245°
2026-04-28 15:01 31.63935 122.62010 35270 ft 401 kts 234°
2026-04-28 15:02 31.61929 122.59757 35298 ft 410 kts 224°
2026-04-28 15:02 31.57304 122.55736 35301 ft 411 kts 223°
2026-04-28 15:03 31.52748 122.51761 35299 ft 411 kts 223°
2026-04-28 15:03 31.48132 122.47729 35267 ft 411 kts 223°
2026-04-28 15:04 31.43259 122.44215 35261 ft 424 kts 209°
2026-04-28 15:04 31.37719 122.41749 35266 ft 426 kts 208°
2026-04-28 15:05 31.32167 122.39281 35275 ft 427 kts 208°
2026-04-28 15:05 31.26613 122.36810 35244 ft 427 kts 208°
2026-04-28 15:06 31.21053 122.34341 35283 ft 427 kts 208°
2026-04-28 15:06 31.18276 122.33104 35069 ft 427 kts 208°
2026-04-28 15:06 31.15500 122.31868 34834 ft 427 kts 208°
2026-04-28 15:06 31.12723 122.30632 34601 ft 427 kts 208°
2026-04-28 15:07 31.10886 122.29815 34448 ft 427 kts 208°
2026-04-28 15:07 31.07170 122.28169 34107 ft 427 kts 207°
2026-04-28 15:07 31.04390 122.26941 33840 ft 428 kts 207°
2026-04-28 15:07 31.02547 122.26125 33670 ft 428 kts 207°
2026-04-28 15:08 30.99753 122.24898 33408 ft 430 kts 206°
2026-04-28 15:08 30.96909 122.23783 33153 ft 433 kts 204°
2026-04-28 15:08 30.94016 122.22787 32897 ft 435 kts 202°
2026-04-28 15:08 30.91085 122.21861 32646 ft 437 kts 201°
2026-04-28 15:09 30.88143 122.20959 32392 ft 438 kts 201°
2026-04-28 15:09 30.85225 122.19971 32124 ft 434 kts 206°
2026-04-28 15:09 30.82507 122.18515 31893 ft 428 kts 215°
2026-04-28 15:09 30.80074 122.16569 31650 ft 423 kts 224°
2026-04-28 15:10 30.77966 122.14212 31406 ft 419 kts 232°
2026-04-28 15:10 30.76202 122.11525 31176 ft 418 kts 239°
2026-04-28 15:10 30.74626 122.08682 30936 ft 419 kts 239°
2026-04-28 15:10 30.73033 122.05837 30714 ft 420 kts 238°
2026-04-28 15:11 30.71432 122.02996 30478 ft 421 kts 238°
2026-04-28 15:11 30.69822 122.00144 30246 ft 422 kts 238°
2026-04-28 15:11 30.68207 121.97283 29957 ft 424 kts 238°
2026-04-28 15:11 30.66586 121.94409 29686 ft 426 kts 238°
2026-04-28 15:12 30.64962 121.91529 29416 ft 427 kts 238°
2026-04-28 15:12 30.63332 121.88640 29151 ft 428 kts 238°
2026-04-28 15:12 30.61696 121.85742 28896 ft 429 kts 238°
2026-04-28 15:12 30.60058 121.82837 28636 ft 431 kts 238°
2026-04-28 15:13 30.58416 121.79923 28391 ft 432 kts 238°
2026-04-28 15:13 30.56771 121.77006 28135 ft 432 kts 238°
2026-04-28 15:13 30.55124 121.74085 27882 ft 433 kts 238°
2026-04-28 15:13 30.53470 121.71159 27632 ft 434 kts 238°
2026-04-28 15:14 30.51809 121.68225 27358 ft 436 kts 238°
2026-04-28 15:14 30.50141 121.65278 27104 ft 438 kts 238°
2026-04-28 15:14 30.48471 121.62327 26855 ft 439 kts 238°
2026-04-28 15:14 30.46793 121.59367 26628 ft 440 kts 238°
2026-04-28 15:15 30.45107 121.56402 26390 ft 441 kts 238°
2026-04-28 15:15 30.43421 121.53435 26147 ft 442 kts 238°
2026-04-28 15:15 30.41729 121.50457 25933 ft 443 kts 238°
2026-04-28 15:15 30.40035 121.47479 25742 ft 443 kts 238°
2026-04-28 15:16 30.38337 121.44500 25759 ft 444 kts 238°
2026-04-28 15:16 30.36633 121.41517 25748 ft 444 kts 238°
2026-04-28 15:16 30.34928 121.38535 25770 ft 444 kts 238°
2026-04-28 15:16 30.33223 121.35552 25761 ft 444 kts 238°
2026-04-28 15:17 30.31516 121.32567 25762 ft 444 kts 238°
2026-04-28 15:17 30.29809 121.29587 25768 ft 444 kts 237°
2026-04-28 15:17 30.28102 121.26610 25768 ft 444 kts 237°
2026-04-28 15:17 30.26393 121.23628 25754 ft 445 kts 238°
2026-04-28 15:18 30.24670 121.20656 25506 ft 445 kts 237°
2026-04-28 15:18 30.22881 121.17731 25234 ft 446 kts 235°
2026-04-28 15:18 30.21038 121.14846 24964 ft 445 kts 234°
2026-04-28 15:18 30.19200 121.12037 24676 ft 430 kts 234°
2026-04-28 15:19 30.17407 121.09313 24408 ft 422 kts 234°
2026-04-28 15:19 30.15642 121.06613 24149 ft 421 kts 234°
2026-04-28 15:19 30.13890 121.03906 23884 ft 421 kts 234°
2026-04-28 15:19 30.12144 121.01187 23600 ft 421 kts 234°
2026-04-28 15:20 30.10401 120.98462 23281 ft 423 kts 234°
2026-04-28 15:20 30.08655 120.95725 22982 ft 424 kts 234°
2026-04-28 15:20 30.06901 120.92984 22684 ft 425 kts 234°
2026-04-28 15:20 30.05143 120.90241 22365 ft 426 kts 234°
2026-04-28 15:21 30.03524 120.87384 22059 ft 426 kts 246°
2026-04-28 15:21 30.02812 120.84089 21758 ft 428 kts 266°
2026-04-28 15:21 30.03117 120.80680 21436 ft 425 kts 281°
2026-04-28 15:21 30.04117 120.77512 21106 ft 417 kts 291°
2026-04-28 15:22 30.05448 120.74577 20740 ft 408 kts 296°
2026-04-28 15:22 30.06826 120.71807 20391 ft 398 kts 296°
2026-04-28 15:22 30.08152 120.69000 20036 ft 389 kts 294°
2026-04-28 15:22 30.09312 120.66256 19707 ft 380 kts 291°
2026-04-28 15:23 30.10371 120.63456 19401 ft 371 kts 289°
2026-04-28 15:23 30.11326 120.60726 19108 ft 362 kts 288°
2026-04-28 15:23 30.12229 120.58045 18815 ft 355 kts 288°
2026-04-28 15:23 30.13101 120.55442 18528 ft 349 kts 288°
2026-04-28 15:24 30.13977 120.52854 18203 ft 343 kts 288°
2026-04-28 15:24 30.14851 120.50311 17865 ft 337 kts 288°
2026-04-28 15:24 30.15388 120.47737 17545 ft 326 kts 269°
2026-04-28 15:24 30.15115 120.45181 17216 ft 318 kts 257°
2026-04-28 15:25 30.14550 120.42740 16888 ft 313 kts 244°
2026-04-28 15:25 30.13269 120.40750 16562 ft 310 kts 221°
2026-04-28 15:25 30.11383 120.39554 16255 ft 314 kts 199°
2026-04-28 15:25 30.09201 120.39358 15935 ft 321 kts 176°
2026-04-28 15:26 30.07079 120.40217 15610 ft 330 kts 153°
2026-04-28 15:26 30.05374 120.42017 15300 ft 339 kts 130°
2026-04-28 15:26 30.04354 120.44481 14992 ft 344 kts 111°
2026-04-28 15:26 30.03771 120.47153 14686 ft 346 kts 97°
2026-04-28 15:27 30.04005 120.49924 14305 ft 351 kts 76°
2026-04-28 15:27 30.04838 120.52570 13914 ft 353 kts 65°
2026-04-28 15:27 30.05988 120.55075 13478 ft 354 kts 59°
2026-04-28 15:27 30.07260 120.57507 13042 ft 354 kts 58°
2026-04-28 15:28 30.08542 120.59936 12613 ft 354 kts 59°
2026-04-28 15:28 30.09785 120.62392 12191 ft 354 kts 61°
2026-04-28 15:28 30.11187 120.64709 11769 ft 352 kts 44°
2026-04-28 15:28 30.13147 120.66287 11365 ft 347 kts 20°
2026-04-28 15:29 30.15460 120.66859 10962 ft 338 kts 355°
2026-04-28 15:29 30.17717 120.66362 10560 ft 326 kts 332°
2026-04-28 15:29 30.19581 120.64974 10140 ft 315 kts 310°
2026-04-28 15:29 30.20849 120.62969 9675 ft 306 kts 290°
2026-04-28 15:30 30.21424 120.60654 9220 ft 297 kts 271°
2026-04-28 15:30 30.21290 120.58308 8762 ft 290 kts 252°
2026-04-28 15:30 30.20588 120.56155 8413 ft 283 kts 242°
2026-04-28 15:30 30.19743 120.54138 8162 ft 275 kts 239°
2026-04-28 15:31 30.18867 120.52205 7914 ft 269 kts 238°
2026-04-28 15:31 30.17985 120.50306 7672 ft 268 kts 238°
2026-04-28 15:31 30.17105 120.48410 7425 ft 268 kts 238°
2026-04-28 15:31 30.16233 120.46509 7185 ft 268 kts 238°
2026-04-28 15:32 30.15369 120.44599 6952 ft 268 kts 238°
2026-04-28 15:32 30.14512 120.42683 6707 ft 269 kts 238°
2026-04-28 15:32 30.13659 120.40762 6459 ft 269 kts 238°
2026-04-28 15:32 30.12802 120.38833 6212 ft 271 kts 238°
2026-04-28 15:33 30.11938 120.36887 5970 ft 273 kts 238°
2026-04-28 15:33 30.11070 120.34931 5710 ft 275 kts 238°
2026-04-28 15:33 30.10199 120.32968 5401 ft 272 kts 239°
2026-04-28 15:33 30.09342 120.31039 5076 ft 269 kts 239°
2026-04-28 15:34 30.08491 120.29133 4734 ft 266 kts 239°
2026-04-28 15:34 30.07647 120.27248 4407 ft 263 kts 239°
2026-04-28 15:34 30.06811 120.25375 4074 ft 262 kts 241°
2026-04-28 15:34 30.06348 120.23371 3888 ft 258 kts 271°
2026-04-28 15:35 30.06788 120.21456 3886 ft 241 kts 304°
2026-04-28 15:35 30.09165 120.19323 3916 ft 201 kts 346°
2026-04-28 15:35 30.10493 120.18968 3899 ft 192 kts
2026-04-28 15:36 30.11802 120.19018 3896 ft 186 kts 17°
2026-04-28 15:36 30.13021 120.19432 3897 ft 181 kts 30°
2026-04-28 15:36 30.14088 120.20159 3894 ft 177 kts 43°
2026-04-28 15:36 30.14952 120.21137 3770 ft 172 kts 56°
2026-04-28 15:37 30.15576 120.22300 3590 ft 169 kts 66°
2026-04-28 15:37 30.16110 120.23499 3373 ft 167 kts 65°
2026-04-28 15:37 30.16638 120.24683 3151 ft 165 kts 65°
2026-04-28 15:37 30.16987 120.25469 2998 ft 166 kts 65°
2026-04-28 15:38 30.17688 120.27040 2706 ft 161 kts 65°
2026-04-28 15:38 30.18194 120.28176 2486 ft 157 kts 65°
2026-04-28 15:38 30.18688 120.29287 2269 ft 154 kts 64°
2026-04-28 15:38 30.19171 120.30372 2063 ft 149 kts 63°
2026-04-28 15:39 30.19625 120.31390 1891 ft 139 kts 63°
2026-04-28 15:39 30.20059 120.32368 1701 ft 135 kts 63°
2026-04-28 15:39 30.20486 120.33328 1499 ft 133 kts 62°
2026-04-28 15:39 30.20909 120.34279 1319 ft 133 kts 62°
2026-04-28 15:40 30.21333 120.35231 1137 ft 133 kts 62°
2026-04-28 15:40 30.21754 120.36180 962 ft 133 kts 61°
2026-04-28 15:40 30.22184 120.37136 747 ft 135 kts 61°
2026-04-28 15:40 30.22603 120.38108 563 ft 135 kts 59°
2026-04-28 15:41 30.23035 120.39063 410 ft 133 kts 58°
2026-04-28 15:41 30.23462 120.40027 238 ft 133 kts 63°
2026-04-28 15:41 30.23889 120.40984 65 ft 134 kts 60°
2026-04-28 15:41 30.24296 120.41873 35 ft 119 kts 62°
2026-04-28 15:42 30.24719 120.42873 480 ft 139 kts 64°
2026-04-28 15:42 30.25159 120.43874 1281 ft 146 kts 62°
2026-04-28 15:42 30.25665 120.44963 1885 ft 162 kts 61°
2026-04-28 15:42 30.26251 120.46166 2208 ft 182 kts 61°
2026-04-28 15:43 30.26988 120.47382 2777 ft 189 kts 43°
2026-04-28 15:43 30.28220 120.47987 2981 ft 200 kts
2026-04-28 15:43 30.29599 120.47626 3010 ft 210 kts 340°
2026-04-28 15:43 30.30902 120.46854 3007 ft 210 kts 339°
2026-04-28 15:44 30.32104 120.45886 3006 ft 217 kts 314°
2026-04-28 15:44 30.32702 120.44268 3016 ft 226 kts 277°
2026-04-28 15:44 30.32455 120.42476 3013 ft 228 kts 249°
2026-04-28 15:44 30.31833 120.40777 3014 ft 230 kts 244°
2026-04-28 15:45 30.31146 120.39110 3012 ft 230 kts 243°
2026-04-28 15:45 30.30452 120.37439 3012 ft 230 kts 242°
2026-04-28 15:45 30.29765 120.35768 3011 ft 229 kts 243°
2026-04-28 15:45 30.29083 120.34105 3012 ft 229 kts 243°
2026-04-28 15:46 30.28392 120.32447 3015 ft 228 kts 240°
2026-04-28 15:46 30.27676 120.30805 3007 ft 229 kts 241°
2026-04-28 15:46 30.26986 120.29182 2839 ft 220 kts 242°
2026-04-28 15:46 30.26310 120.27637 2637 ft 212 kts 240°
2026-04-28 15:47 30.25606 120.26168 2428 ft 206 kts 232°
2026-04-28 15:47 30.24510 120.25219 2219 ft 194 kts 191°
2026-04-28 15:47 30.23221 120.25236 2065 ft 184 kts 159°
2026-04-28 15:47 30.22041 120.25746 1992 ft 177 kts 138°
2026-04-28 15:48 30.21164 120.26712 1998 ft 174 kts 126°
2026-04-28 15:48 30.20411 120.27799 2002 ft 172 kts 118°
2026-04-28 15:48 30.19819 120.29002 1999 ft 171 kts 108°
2026-04-28 15:48 30.19567 120.30325 1932 ft 167 kts 89°
2026-04-28 15:49 30.19739 120.31590 1788 ft 151 kts 69°
2026-04-28 15:49 30.20175 120.32633 1641 ft 138 kts 62°
2026-04-28 15:49 30.20608 120.33605 1447 ft 134 kts 61°
2026-04-28 15:49 30.21035 120.34563 1272 ft 134 kts 62°
2026-04-28 15:50 30.21458 120.35514 1095 ft 132 kts 61°
2026-04-28 15:50 30.21879 120.36463 898 ft 134 kts 61°
2026-04-28 15:50 30.22308 120.37425 705 ft 134 kts 60°
2026-04-28 15:50 30.22728 120.38388 514 ft 134 kts 59°
2026-04-28 15:51 30.23164 120.39336 336 ft 134 kts 61°
2026-04-28 15:51 30.23583 120.40296 152 ft 136 kts 60°
2026-04-28 15:51 30.24000 120.41256 40 ft 128 kts 59°
2026-04-28 15:51 30.24254 120.41804 32 ft 101 kts 64°
2026-04-28 15:52 30.24527 120.42432 29 ft 34 kts 68°
2026-04-28 15:52 30.24554 120.42576 29 ft 19 kts 84°
2026-04-28 15:52 30.24557 120.42687 30 ft 9 kts 90°
2026-04-28 15:52 30.24549 120.42754 31 ft 4 kts 112°
2026-04-28 15:53 30.24537 120.42774 31 ft 8 kts 130°
2026-04-28 15:53 30.24491 120.42771 32 ft 6 kts 222°
2026-04-28 15:53 30.24440 120.42753 32 ft 12 kts 171°
2026-04-28 15:53 30.24360 120.42796 31 ft 12 kts 158°
2026-04-28 15:54 30.24285 120.42793 32 ft 10 kts 179°
2026-04-28 15:54 30.24227 120.42821 31 ft 9 kts 153°
2026-04-28 15:54 30.24178 120.42850 30 ft 7 kts 153°
2026-04-28 15:54 30.24147 120.42844 32 ft 4 kts 226°
2026-04-28 15:55 30.24134 120.42824 32 ft 3 kts 234°
2026-04-28 15:55 30.24123 120.42807 32 ft 1 kts 234°
2026-04-28 15:55 30.24121 120.42803 32 ft 0 kts 234°